Regional Weather Roundup
Issued by NWS

Home | Current Version | Previous Version | Text Only | Print | Product List | Glossary Off
Versions: 1 2 3 4 5 6 7 8 9 10 11 12 13 14 15 16 17 18 19 20 21 22 23 24 25 26 27 28

000
ASUS45 KTFX 210710
RWRMT
MONTANA REGIONAL WEATHER ROUNDUP
NATIONAL WEATHER SERVICE GREAT FALLS MT
100 AM MDT FRI JUL 21 2017

NOTE: "FAIR" INDICATES FEW OR NO CLOUDS BELOW 12000 FEET WITH NO
SIGNIFICANT WEATHER AND/OR OBSTRUCTIONS TO VISIBILITY.

MTZ001>007-043-210800-
WEST OF THE DIVIDE

CITY           SKY/WX    TMP DP  RH WIND       PRES   REMARKS
KALISPELL      PTCLDY    61  33  35 W6        30.02R
MISSOULA       CLEAR     62  37  39 NW7       30.05R
BUTTE          CLEAR     63  35  35 NW8       30.12R
MULLAN PASS    CLEAR     51  32  48 SW8       30.17S
ANACONDA         N/A     64  37  36 CALM      30.10S
DEER LODGE       N/A     64  37  36 NW13      30.09R
EUREKA           N/A     63  39  42 MISG      30.00R
HAMILTON         N/A     59  46  63 NE3       30.06R
LIBBY            N/A     57  36  44 CALM      30.01R
$$

MTZ008-052>055-210800-
SOUTHWEST MONTANA

CITY           SKY/WX    TMP DP  RH WIND       PRES   REMARKS
DILLON         CLEAR     64  38  38 S5        30.08R
W YELLOWSTONE  CLEAR     64  34  32 SW5       30.16R
ENNIS          MOCLDY    64  36  34 E5        30.13R
THREE FORKS      N/A     61  39  44 CALM      30.03R
TWIN BRIDGES     N/A     69  33  26 CALM      30.05R
$$

MTZ009-010-012-014-046-048-049-054-210800-
EAST SLOPES AND CENTRAL MONTANA

CITY           SKY/WX    TMP DP  RH WIND       PRES   REMARKS
CUT BANK       PTCLDY    61  38  42 W13       29.96R
GREAT FALLS    CLEAR     63  26  24 SW7       29.96R
HELENA         CLEAR     70  32  24 W9        30.03R
CHOTEAU          N/A     64  36  34 MISG      29.99R
$$

MTZ011-013-016-021-045-047-050-051-210800-
NORTH CENTRAL MONTANA

CITY           SKY/WX    TMP DP  RH WIND       PRES   REMARKS
HAVRE          CLEAR     69  39  33 W14       29.82R
LEWISTOWN      PTCLDY    67  34  29 SW12      29.97R
N BAR RANCH      N/A     70  32  24 NW10      29.98R
CHINOOK          N/A     70  43  37 CALM      29.80R
$$

MTZ017>020-022>027-061-062-210800-
NORTHEAST MONTANA

CITY           SKY/WX    TMP DP  RH WIND       PRES   REMARKS
GLASGOW        CLEAR     72  52  49 E15       29.74F
JORDAN           N/A     67  53  61 CALM      29.75F
SIDNEY         CLOUDY    66  59  78 NE6       29.76F
WOLF POINT     CLEAR     70  55  59 NE9       29.75F
MALTA          PTCLDY    72  50  46 NE13      29.78S
PLENTYWOOD       N/A     70  57  64 SE10      29.80R
POPLAR           N/A     66  55  68 NE6       29.77R
$$

MTZ028>42-056>058-210800-
SOUTHCENTRAL AND SOUTHEAST MONTANA

CITY           SKY/WX    TMP DP  RH WIND       PRES   REMARKS
BAKER          CLOUDY    74  58  57 S14       29.85S
BILLINGS       MOCLDY    78  51  38 W23G29    29.87R
LIVINGSTON     CLEAR     68  37  32 W9        30.02R
MILES CITY     MOCLDY    77  48  35 S10       29.79R
BIG TIMBER     MOCLDY    75  34  22 S7G14     30.01R
FORSYTH          N/A     79  48  34 S8        29.78R
LAUREL           N/A     74  51  44 SW14      29.89R
$$

REGIONAL REPORTS...DAKOTAS

CITY           SKY/WX    TMP DP  RH WIND       PRES   REMARKS
WILLISTON      CLOUDY    73  58  59 SE9       29.79S
MINOT          CLOUDY    69  63  81 SE6       29.81F
DICKINSON      CLOUDY    67  62  84 S9        29.80F
BEACH            N/A     75  57  53 S22G29    29.84F
CROSBY           N/A     68  57  68 E8        29.80F
TIOGA            N/A     66  59  77 E9        29.83F
WATFORD CITY     N/A     64  59  82 SE6       29.78F
BISMARCK       CLOUDY    76  59  55 S15G26    29.83R
GRAND FORKS    MOCLDY    71  63  75 SE9       29.87R
FARGO          CLOUDY    77  68  73 S13       29.87F
BUFFALO SD       N/A     68  63  84 S18       29.83S
RAPID CITY     CLOUDY    65  63  93 N18G24    29.98F
$$

REGIONAL REPORTS...WYOMING/IDAHO/WASHINGTON

CITY           SKY/WX    TMP DP  RH WIND       PRES   REMARKS
GILLETTE       CLEAR     68  60  75 S20       29.96F
SHERIDAN       CLOUDY    68  52  56 CALM      29.89S
BUFFALO WY     CLOUDY    68  52  56 SE13      29.98F
CODY           CLOUDY    61  54  77 NE3       30.02S
YELLOWSTONE LA   N/A     45  45 100 NW3       30.27F
IDAHO FALLS    CLOUDY    61  43  51 S10       30.07R
BOISE          CLEAR     72  36  26 E5        29.97R
SPOKANE        PTCLDY    63  42  46 SW10      30.03S
$$

REGIONAL REPORTS...ALBERTA

CITY           SKY/WX    TMP DP  RH WIND       PRES   REMARKS
EDMONTON       PTCLDY    55  54  94 W8        29.82S
CALGARY        MOCLDY    59  46  63 NW8       29.93S
LETHBRIDGE     CLEAR     68  37  32 W20       29.91R
MEDICINE HAT   PTCLDY    72  41  33 W12       29.80R
WATERTON GATE    N/A     63  32  31 W15G25      N/A
MILK RIVER       N/A     59  39  47 W10         N/A
$$

REGIONAL REPORTS...SASKATCHEWAN

CITY           SKY/WX    TMP DP  RH WIND       PRES   REMARKS
SWIFT CURRENT  MOCLDY    66  50  55 SE13G18   29.80R
REGINA         CLOUDY    66  59  77 E12G21    29.85F
SASKATOON      LGT RAIN  64  57  77 VRB13     29.85S
CYPRESS HILLS    N/A     63  46  55 SE7         N/A
ROCKGLEN         N/A     61  55  82 E5          N/A
$$




USA.gov is the U.S. government's official web portal to all federal, state and local government web resources and services.